Starlink 33579

operational
NORAD ID: 62764 Int'l Des: 2025-015 Owner: SPXS Country: US Constellation: starlink
LEOCIRCULAR

Über Starlink 33579

Beschreibung wird geladen...

Live-Position

3D-Globus wird geladen...

Nächste Überflüge

Höhenverlauf

Altitude vs Time

uPlot chart will show altitude changes over time

Zweizeiliger Elementsatz

1 62764U 25015G 25259.74028505 .00008645 00000-0 30369-3 0 9999
2 62764 53.1616 50.0835 0001185 89.8918 270.2219 15.30196740 37850
Epoch: 16. Sept. 2025 • Age: 26 hours

Aktueller Status

Höhe 492.9 km
Geschwindigkeit 7.62 km/s
Subsatellitenpunkt -49.22°S, 11.31°W
Startdatum 21. Jan. 2025
Alter 0.6 years
Typ internet

Technische Details

Klassifizierung Payload
Masse 575.00 kg
Trockenmasse 530.00 kg
Gesamtmasse 575.00 kg
Länge 0.30 m
Durchmesser 4.10 m
Spannweite 29.00 m
Form Box + pan
Hersteller SPXS
Bus-Typ Starlink V2MO
Phasenstatus In Orbit
Besitzer/Staat SPXS/US

Große Konstellationen

Loading constellations...